Showing default

TJS-5, 44978

Orbit data source: Space-Track

TJS-5, 44978 is a payload satellite owned by CASC (CN) in GEO that was launched on Tue, 07 Jan 2020 UTC via a CHANG ZHENG 3B launch vehicle from the Xichang Space Center, China (XSC). Payload-class satellites include a variety of spacecraft equipped with specific instruments for various scientific and technological missions. These include communications satellites like Starlink; space stations such as the ISS; scientific satellites like the Hubble; Earth observation satellites from companies like Planet Labs, Umbra, and HawkEye 360; GPS; miniature CubeSats for education and research; and military/defense satellites.

Not visible in the next 10 days
Identifier
44978, 2020-002A
Orbit
GEO
Country
Flag of CNCN / PRC
Related business
Manufacturer
SISE
Mission
Operational Defense Early Warn
Bus & Motor
FY-4?, Unknown motor
Mass
~4,000 kg wet, ~2,500 kg dry
Launch date (UTC)
2020-01-07 (7 years ago)
Launch vehicle
CHANG ZHENG 3B
Launch site
Xichang Space Center, China (XSC)
Object type
Payload
Rocket body
Debris
Shape & HBR
Box + 2 Pan, 15.0 m
Radar Cross Section
34.063 m², Large (>1 m²)

Expand to show TLE details & history
Last TLE update: 16 hours ago

TLE from 16 hours ago
0 TJS-5
1 44978U 20002A   26195.01000282 -.00000348  00000-0  00000+0 0  9997
2 44978   0.0604  74.3697 0007952 339.9433 348.6673  1.00271739 23975
Epoch: 2026-07-14T00:14Z
TLE epoch observation values (Epoch: 2026-07-14T00:14:24.243Z)
Latitude
-0.03085°
Longitude
107.49024°
Altitude
35,753.319 km
Speed
3.077 km/s
True Right ascension
02h 51m 54s
True Declination
0° 01' 51"
Sunlit
Object was in daylight at epoch
Visualization orbit readout
Latitude
Unknown
Longitude
Unknown
Altitude
Unknown
Speed
Unknown
Apparent Right ascension
Unknown
Apparent Declination
Unknown
Sunlit
N/A
Visualization observer readout
Local Sidereal Time
04:21:00
Azimuth
Unknown
Elevation
Unknown
Doppler factor
Unknown
Orbital elements
Apogee altitude
35,821.208 km
Perigee altitude
35,754.148 km
Semi-major axis
42,165.815 km
Eccentricity
0.0008
Inclination
0.0604°
RAAN
74.3697°
Arg. of periapsis
339.9433°
True anomaly
348.64938°
Mean anomaly
348.6673°
Eccentric anomaly
348.65834°
Mean motion
0.25067 °/min
Orbital period
1,436.15 mins
BSTAR
0
Loading maneuver chart data...
Computing Atmospheric mass density...
Loading historical data...
Loading historical data...
Loading historical data...
Loading historical data...
Loading historical data...
Loading historical data...
Loading historical data...
Other satellites on launch #2 in the year 2020 (2020-01-07 UTC)

Documentation

Showing up to 5 results
|